www.pogodaiklimat.ru

ПОГОДА в Калтаге, AK

  • Прогноз погоды в Калтаге
  • Монитор погоды в Калтаге
  • Климат в Калтаге

АРХИВ ПОГОДЫ в Калтаге

Время (UTC), дата Ветер
(напр.,м/с)
 
Видим.   Явления Облачность Т
(С)
Тd
(С)
f
(%)
Тe
(С)
Тes
(С)
Комфортность

P
(гПа)

Po
(гПа)
Тmin
(С)
Tmax
(С)
R
(мм)
SD
(см)
12:53 24.05 ЮЗ  16 км    8/8 1950 м  +7.2  +3.9  80  +3  +3    1020.2  1013.3         
13:53 24.05 ЮЗ  16 км    10/0 2700 м
[средняя] 
+7.2  +3.9  80  +3  +3    1020.8  1014.0         
14:53 24.05 ЮЗ  16 км    10/10 1950 м  +7.8  +3.9  76  +4  +4    1021.2  1014.4         
15:53 24.05 ЮЗ  16 км    10/10 1950 м  +7.8  +3.9  76  +4  +4    1021.8  1015.0         
16:53 24.05 ЮЗ  16 км    10/10 1950 м  +9.4  +4.4  71  +7  +7    1022.3  1015.4  +7.2  +10.0     
17:53 24.05 ЮЗ  16 км    10/0 2100 м
[средняя] 
+10.6  +4.4  65  +9  +10    1022.4  1015.7         
18:53 24.05 ЮЗ  16 км    10/0 2400 м
[средняя] 
+11.7  +5.0  63  +10  +12    1022.5  1015.7         
19:53 24.05   16 км    10/0 2100 м
[средняя] 
+13.9  +5.6  57  +14  +17    1022.8  1016.0         
20:53 24.05 нст  16 км    10/0 2250 м
[средняя] 
+13.9  +5.0  55  +13  +16    1022.8  1016.0         
21:53 24.05 ЮЗ  16 км    10/0 2250 м
[средняя] 
+14.4  +5.6  55  +13  +16    1022.6  1015.7         
22:53 24.05 ЮЗ  16 км    10/0 2250 м
[средняя] 
+14.4  +5.6  55  +13  +16    1022.6  1015.7  +10.0  +15.0     
23:53 24.05 нст  16 км    10/0 2400 м
[средняя] 
+15.6  +5.6  51  +16  +20    1022.2  1015.4         
00:53 25.05   16 км    10/0 2400 м
[средняя] 
+16.1  +6.1  51  +16  +20    1021.8  1015.0         
01:53 25.05 нст  16 км    8/0 2400 м
[средняя] 
+16.7  +6.1  50  +17  +21    1021.5  1014.7         
02:53 25.05   16 км    10/0 2400 м
[средняя] 
+16.1  +5.6  50  +16  +18    1021.1  1014.4         
03:53 25.05 нст  16 км    10/0 2250 м
[средняя] 
+15.6  +6.1  53  +16  +17    1020.8  1014.0         
04:53 25.05   16 км    10/0 2400 м
[средняя] 
+15.6  +6.1  53  +16  +16    1020.7  1014.0  +14.4  +16.7     
05:53 25.05   16 км    10/0 2400 м
[средняя] 
+13.3  +7.8  69  +13  +13    1020.7  1014.0         
06:53 25.05 ЮЗ  16 км    8/0 2400 м
[средняя] 
+11.1  +3.9  61  +10  +10    1020.4  1013.7         
07:53 25.05 ЮЗ  16 км    ясно  +8.3  +2.8  68  +6  +6    1020.4  1013.7         
08:53 25.05 ЮЗ  16 км    ясно  +7.0            1020.1  1013.3         
09:53 25.05 ЮЗ  16 км    ясно  +6.0            1019.7  1013.0         
10:53 25.05 ЮЗ  16 км    ясно  +5.0            1019.3  1012.7  +5.0  +15.6     
11:53 25.05 ЮЗ  16 км    ясно  +4.0            1018.8  1012.0         
12:53 25.05 ЮЗ  16 км    ясно  +4.0            1018.2  1011.3         
13:53 25.05 ЮЗ  16 км    ясно  +6.0            1017.6  1011.0         
14:53 25.05   16 км    н/о  +8.0            1017.3  1010.7         
15:53 25.05 СВ  16 км    ясно  +14.0            1016.7  1010.0         
16:53 25.05 СВ  16 км    ясно  +16.0            1015.4  1008.6  +3.9  +15.6     
17:53 25.05 СВ  16 км    ясно  +17.0            1014.4  1007.6         
18:53 25.05 СВ  16 км    ясно  +18.0            1013.9  1007.0         
19:53 25.05 СВ  16 км    ясно  +19.0            1012.9  1006.3         
20:53 25.05 С  16 км    10/2 1650 м
[средняя] 
+20.0            1011.8  1004.9         
21:53 25.05 СВ  16 км    10/5 1500 м
[средняя] 
+20.0            1010.8  1003.9         
22:53 25.05 СВ  16 км    8/5 1950 м
[средняя] 
+20.0            1009.6  1002.9  +15.0  +21.1     
23:53 25.05 СВ  16 км    10/0 2100 м
[средняя] 
+20.0            1008.7  1001.9         
00:53 26.05 СВ  16 км    8/0 2100 м
[средняя] 
+20.0            1008.0  1001.2         
01:53 26.05   16 км    н/о  +18.0            1007.3  1000.6         
02:53 26.05   16 км  слабый дождь  10/10 1410 м  +14.0            1008.5  1001.9         
03:53 26.05   11 км  слабый дождь  10/10 1950 м  +12.0            1009.1  1002.2         
04:53 26.05   8 км  слабый дождь, дымка  10/10 1440 м  +11.7  +10.0  89  +11  +11    1008.9  1002.2  +11.7  +20.6  2.8   
05:53 26.05 ЮЗ  16 км  слабый дождь  10/10 1500 м  +10.6  +9.4  92  +10  +10    1008.4  1001.9         
06:53 26.05   16 км  слабый дождь  10/10 1800 м  +10.6  +8.9  89  +10  +10    1008.9  1002.2         
07:37 26.05   16 км    10/10 450 м  +10.6  +8.9  89  +10  +10      1002.2         
07:48 26.05   16 км  слабый дождь  10/10 450 м  +11.0  +9.0  87  +10  +10      1002.2         
07:53 26.05   16 км  слабый дождь  10/10 450 м  +10.6  +8.9  89  +10  +10    1008.9  1002.2      1.0   
08:53 26.05   16 км    10/8 1380 м
[средняя] 
+9.4  +8.3  93  +9  +9    1008.9  1002.2         
09:53 26.05   16 км    10/10 1290 м  +8.9  +7.8  93  +8  +8    1008.7  1001.9         

 

Местоположение метеостанции Kaltag Airport: широта 64.3167 долгота -158.7333 высота над уровнем моря 54 м.

В архиве по умолчанию представлена погода в Калтаге за последние 1-2 суток. Обновление информации о фактической погоде в базе происходит ежечасно! Архивные данные за месяц целиком и за предыдущие месяцы Вы можете получить, выбрав интересующий диапазон дат из раскрывающегося списка и нажав кнопку "Ввод!".

Внимание! Архив погоды МЕТАР в базе сайта хранится не более 60 дней. Нет смысла пытаться выбрать более раннюю дату.

Внимание! Время в таблицах - всемирное. Для получения местного времени необходимо прибавить поправку, которая в Калтаге равна -9 ч.

Ветер - указаны скорость ветра в м/с и направление, откуда дует ветер: С - северный, СВ - северо-восточный, В - восточный, ЮВ - юго-восточный, Ю - южный, ЮЗ - юго-западный, З - западный, СЗ - северо-западный.
Видимость - горизонтальная дальность видимости в метрах или километрах. При видимости от 1 до 10 км при отсутствии осадков обычно наблюдается дымка, при ухудшении видимости до 1 км и менее - туман. В сухую погоду видимость может ухудшаться дымом, пылью или мглою.
Атмосферные явления - указаны явления, наблюдавшиеся в указанный момент времени.
Облачность - указаны через наклонную черту верхняя и нижняя облачность в баллах и высота нижней границы облаков в метрах. Внимание: облачность, как и прочие метеорологические величины в США измеряются автоматическими метеостанциями. Указанные значения в баллах носят условный характер и показывают процент времени, в течение которого, в среднем, лазерный луч высотомера отражался от облаков обратно.
T - Температура воздуха - температура, измеренная на высоте 2 м над землей.
Td - Температура точки росы - температура, при понижении до которой содержащийся в воздухе водяной пар достигнет насыщения.
f - Относительная влажность воздуха - влажноcть воздуха, измеренная на высоте 2 м над землей.
Te - Эффективная температура - температура, которую ощущает одетый по сезону человек в тени. Характеристика душности погоды. При расчете учитывается влияние влажности воздуха и скорости ветра на теплоощущения человека.
Tes - Эффективная температура на солнце - температура, которую ощущает человек, с поправкой на солнечный нагрев. Характеристика знойности погоды. Зависит от высоты солнца над горизонтом, облачности и скорости ветра. Ночью, в пасмурную погоду, а также при ветре 12 м/с и более поправка равна нулю.
P - Атмосферное давление - приведенное к уровню моря атмосферное давление.
Po - Атмосферное давление - измеренное на уровне метеостанции атмосферное давление.
Tmin - Минимальная температура - минимум температуры воздуха на высоте 2 м над землей.
Tmax - Максимальная температура - максимум температуры воздуха на высоте 2 м над землей.
R - Количество осадков - Количество выпавших осадков за 3 или 6 часов, мм.
SD - Снежный покров - Высота снежного покрова, см.